sat.trackr.live / text

‹ back to catalog

SKYSAT-C12

NORAD 43797 · 2018-099AR

PAYLOAD ACTIVE UNKNOWN

§ Identity

Operator
Country
US
Launch date
2018-12-03
Launch site
AFWTR
Launch vehicle
Mass (kg)
RCS (m²)

Purposes: earth_obs

External: N2YO · Heavens-Above · Gunter

§ Orbital elements

Epoch: 2026-05-25T00:35:26.429280Z

Period
93.02 min
Inclination
96.9279°
Eccentricity
0.0002742
Mean motion
15.48056080 rev/d
Perigee alt
420.5 km
Apogee alt
424.3 km
Semi-major
6,800.6 km
B*
2.9095e-4
RAAN
169.2064°
Arg perigee
202.3350°
Mean anomaly
157.7782°
Rev number
41,827

§ Raw data

SKYSAT-C121 43797U 18099AR  26145.02461145  .00015159  00000+0  29095-3 0  99962 43797  96.9279 169.2064 0002742 202.3350 157.7782 15.48056080418278

JSON: /api/v1/satellites/43797 · /tle

For live sub-satellite position, see the globe view (requires WebGL).

§ Visibility from observer

Set your observer location to see the next 7 days of passes ≥ 10°. The values pass through the URL so the page stays shareable.

No JS? Fill the form by hand. The geolocation button needs JavaScript.